Home   Weather   Brisbane   Past weeks

Flag for Australia Past Weather in Brisbane, Queensland, Australia — Yesterday and Last 2 Weeks

Now
90 °F

Broken clouds.


Feels Like: 96 °F
Forecast: 72 / 81 °F
Wind: 10 mph from West

Location: Brisbane Airport M. O

Current Time: Jan 21, 2017 at 10:30:22 am

Latest Report: Jan 21, 2017 at 10:00 am


Visibility: N/A

Pressure: 29.71 "Hg

Humidity: 55%

Dew Point: 72 °F

Location of BrisbaneLocation

Past Weather in Brisbane — Graph

°F

Brisbane Temperature Yesterday

Maximum temperature yesterday: 88 °F (at 12:30 pm)
Minimum temperature yesterday: 75 °F (at 3:30 am)
Average temperature yesterday: 81 °F

High & Low Weather Summary for the Past Weeks

 TemperatureHumidityPressure
High91 °F (Jan 12, 12:30 pm)100% (Jan 15, 5:00 pm)30.04 "Hg (Jan 15, 5:00 pm)
Low64 °F (Jan 9, 5:30 am)45% (Jan 8, 11:00 am)29.59 "Hg (Jan 20, 4:00 pm)
Average80 °F76%29.85 "Hg
* Reported Jan 6 9:00 am — Jan 21 9:00 am, Brisbane, Weather by CustomWeather, © 2017

Note: Actual official high and low records may vary slightly from our data, if they occured in-between our weather recording intervals... More about our weather records

Advertising

Brisbane Weather History for the Previous 24 Hours

Scroll right to see more
 ConditionsComfort  
Time TempWeatherWind HumidityBarometerVisibility
9:00 am
Sat, Jan 21
90 °FSunny.9 mph59%29.71 "Hg10 mi
8:30 am88 °FSunny.8 mph59%29.71 "Hg10 mi
8:00 am88 °FSunny.10 mph59%29.71 "Hg10 mi
7:30 am88 °FSunny.8 mph59%29.71 "Hg10 mi
7:00 am86 °FSunny.5 mph62%29.68 "Hg10 mi
6:30 am86 °FPartly sunny.6 mph62%29.68 "HgN/A
6:00 am84 °FScattered showers. Broken clouds.7 mph70%29.68 "HgN/A
5:30 am84 °FScattered showers. Broken clouds.12 mph66%29.68 "HgN/A
5:00 am82 °FPartly cloudy.No wind79%29.65 "HgN/A
4:30 am82 °FPassing clouds.6 mph79%29.65 "HgN/A
4:00 am82 °FPassing clouds.5 mph79%29.62 "HgN/A
3:30 am82 °FClear.6 mph79%29.62 "Hg10 mi
3:00 am82 °FClear.6 mph79%29.59 "Hg10 mi
2:30 am82 °FClear.5 mph84%29.59 "Hg10 mi
2:00 am82 °FClear.7 mph84%29.59 "Hg10 mi
1:30 am82 °FClear.8 mph84%29.59 "Hg10 mi
1:00 am82 °FClear.7 mph84%29.59 "Hg10 mi
12:30 am82 °FClear.No wind84%29.62 "Hg10 mi
12:00 am82 °FClear.5 mph84%29.62 "Hg10 mi
11:30 pm
Fri, Jan 20
82 °FClear.2 mph84%29.62 "Hg10 mi
11:00 pm82 °FClear.6 mph84%29.65 "Hg10 mi
10:30 pm82 °FClear.No wind84%29.65 "Hg10 mi
10:00 pm84 °FLight rain. Clear.2 mph79%29.65 "HgN/A
9:30 pm82 °FPassing clouds.6 mph79%29.65 "HgN/A
9:00 pm84 °FPartly cloudy.9 mph74%29.65 "HgN/A
8:30 pm84 °FClear.16 mph79%29.62 "Hg10 mi
8:00 pm82 °FClear.17 mph84%29.59 "Hg10 mi
7:30 pm82 °FClear.21 mph84%29.59 "Hg10 mi
7:00 pm82 °FClear.20 mph84%29.62 "Hg10 mi
6:30 pm82 °FSunny.21 mph84%29.62 "Hg10 mi
6:00 pm82 °FSunny.21 mph84%29.62 "Hg10 mi
5:30 pm82 °FSunny.23 mph79%29.59 "Hg10 mi
5:00 pm84 °FSunny.23 mph74%29.59 "Hg10 mi
4:30 pm84 °FSunny.21 mph74%29.59 "Hg10 mi
4:00 pm84 °FPassing clouds.21 mph70%29.59 "HgN/A
3:30 pm86 °FPassing clouds.20 mph66%29.62 "HgN/A
3:00 pm84 °FPassing clouds.21 mph70%29.62 "HgN/A
2:30 pm86 °FPassing clouds.21 mph66%29.65 "HgN/A
2:00 pm86 °FPassing clouds.17 mph62%29.65 "HgN/A
1:30 pm86 °FPassing clouds.20 mph62%29.65 "HgN/A
1:00 pm88 °FPassing clouds.17 mph59%29.68 "HgN/A
12:30 pm88 °FPassing clouds.15 mph62%29.71 "HgN/A
12:00 pm86 °FScattered clouds.13 mph66%29.74 "HgN/A
11:30 am84 °FPartly sunny.12 mph70%29.74 "HgN/A
11:00 am84 °FScattered clouds.9 mph66%29.74 "HgN/A
10:30 am84 °FPassing clouds.8 mph66%29.77 "HgN/A
10:00 am82 °FScattered clouds.8 mph66%29.77 "HgN/A
Weather by CustomWeather, © 2017

See weather overviewHow to use our weather pages